Regional Weather Roundup
Issued by NWS

Home | Current Version | Previous Version | Text Only | Print | Product List | Glossary Off
Versions: 1 2 3 4 5 6 7 8 9 10 11 12 13 14 15 16 17 18 19 20 21 22 23 24 25 26 27 28 29 30 31 32 33 34 35 36 37 38 39 40 41 42 43 44 45 46 47 48 49 50

000
ASUS43 KIND 220659
RWRIN

WEATHER ROUNDUP FOR INDIANA
NATIONAL WEATHER SERVICE INDIANAPOLIS IN
300 AM EDT TUE MAY 22 2018

NOTE: "FAIR" INDICATES FEW OR NO CLOUDS BELOW 12,000 FEET WITH NO
SIGNIFICANT WEATHER AND/OR OBSTRUCTIONS TO VISIBILITY.

* - STATION DOES NOT REPORT WEATHER SUCH AS PRECIPITATION OR FOG.

+ - STATION NOT QUALITY CONTROLLED BY THE NATIONAL WEATHER SERVICE.
    USE DATA WITH CAUTION...ESPECIALLY DEWPOINT AND RELATIVE
    HUMIDITY OBSERVATIONS.

INZ001>003-010>013-019-020-220800-
NORTHWEST INDIANA

CITY           SKY/WX    TMP DP  RH WIND       PRES   REMARKS
MICHIGAN CITY+ FOG       59  59 100 CALM      29.97F VSB 1/2
MONTICELLO +   FAIR      65  63  96 S3        29.97F
RENSSELAER +   CLOUDY    66  61  82 SW3       29.97F
VALPARAISO     FOG       63  62  97 CALM      29.98S VSB 1/2

$$

LMZ046-743>745-220800-
SOUTHERN LAKE MICHIGAN

STATION/POSITION TIME  TEMP    WIND        PRES    WAVE
                       AIR SEA DIR/SP/G            HT
                 (UTC) (F)     (DEG/KT/KT) (MB)    (FT)
BURNS HARBOR     0640   55        CALM     1015.6S
5NW MICH CITY    0650   53 54  290/  4/  4   N/A     1

$$

INZ004-005-014>016-021>024-220800-
NORTH CENTRAL INDIANA

CITY           SKY/WX    TMP DP  RH WIND       PRES   REMARKS
GOSHEN         FAIR      58  57  97 S5        29.98F FOG
PERU/GRISSOM   MOCLDY    64  64 100 SW5       29.98S
SOUTH BEND     CLOUDY    60  58  92 CALM      29.99F FOG

$$

INZ006>009-017-018-025>027-220800-
NORTHEAST INDIANA

CITY           SKY/WX    TMP DP  RH WIND       PRES   REMARKS
ANGOLA *+      CLOUDY    55  52  88 SE5       29.99F
FORT WAYNE     FAIR      57  56  96 E3        30.00F

$$

INZ028-029-035-036-043>045-051>053-220800-
WEST CENTRAL INDIANA

CITY           SKY/WX    TMP DP  RH WIND       PRES   REMARKS
CRAWFORDSVL +  FAIR      65  65 100 SW7       30.00S FOG
GREENCASTLE +  MOCLDY    64  64 100 CALM      30.02S FOG
LAFAYETTE      FAIR      63  63 100 CALM      29.98S
TERRE HAUTE    CLOUDY    69  67  93 S5        30.00S

$$

INZ030>032-037>040-046>048-054>057-064-065-220800-
CENTRAL INDIANA

CITY           SKY/WX    TMP DP  RH WIND       PRES   REMARKS
ANDERSON       FAIR      65  65 100 S6        30.01S FOG
INDIANAPOLIS   FAIR      66  65  96 SW7       30.00F
-EAGLE CREEK   MOCLDY    68  65  90 S3        30.00S
KOKOMO +       CLOUDY    66  65  96 SW6       30.00S
MT COMFORT *+  FAIR      64  64 100 S6        30.01F
SHELBYVILLE    MOCLDY    68  66  93 S9        30.00F

$$

INZ033-034-041-042-049-050-058-059-220800-
EAST CENTRAL INDIANA

CITY           SKY/WX    TMP DP  RH WIND       PRES   REMARKS
MUNCIE         FAIR      68  64  87 S6        30.00S
RICHMOND +     CLOUDY    64  64 100 S6        30.03F FOG

$$

INZ060-061-067>069-081>083-085>088-220800-
SOUTHWEST INDIANA

CITY           SKY/WX    TMP DP  RH WIND       PRES   REMARKS
EVANSVILLE     MOCLDY    69  69 100 CALM      30.01F
HUNTINGBURG +  FAIR      67  66  97 SE5       30.02S

$$

INZ062-063-066-070>080-084-089>092-220800-
SOUTH CENTRAL AND SOUTHEAST INDIANA

CITY           SKY/WX    TMP DP  RH WIND       PRES   REMARKS
BLOOMINGTON    FOG       65  65 100 CALM      30.01F VSB 1/2
FRENCH LICK *+ MOCLDY    64 N/A N/A CALM      30.02F
SEYMOUR +      MOCLDY    68  68 100 CALM      30.01F

$$




USA.gov is the U.S. government's official web portal to all federal, state and local government web resources and services.